INTELSAT 23 (IS-23)

Last updated on Fri Jun 19 2026 17:09:31 GMT+0000 (Coordinated Universal Time)

1 38867U 12057A 26170.22916560 -.00000291 00000+0 00000+0 0 9995 2 38867 0.0099 325.5761 0000134 86.5042 244.8525 1.00267375 49974
UTC large
Height (km)
Speed (km/s)
/
Latitude / Longitude
Inclination (degrees)
Orbital Period (minutes)
Azimuth
Elevation
Range (km)
Doppler Factor

Next 0 passes for location: London (51.5072 / 0.1276)

No passes found over London.
INTELSAT 23 (IS-23)